KI4BSX Weather Reports


Display with metric or nautical units.
time (UTC)temp
F
wind
direction
speed
MPH
gust
MPH
rain 1hr
in
rain 24hr
in
rain mn
in
humidity
%
barometer
mb
20260506001536 70 159 0.0 1.0 0.00 0.00 0.00 62 1016.1
20260506001034 71 160 0.0 1.0 0.00 0.00 0.00 62 1016.1
20260506000531 71 120 0.0 0.0 0.00 0.00 0.00 61 1016.2
20260506000028 71 120 1.0 1.0 0.00 0.00 0.00 59 1015.9
20260505235526 72 120 0.0 1.0 0.00 0.00 0.00 59 1016.2
20260505235022 72 120 0.0 1.0 0.00 0.00 0.00 58 1015.9
20260505234520 72 120 0.0 1.0 0.00 0.00 0.00 56 1015.9
20260505234017 73 120 0.0 1.0 0.00 0.00 0.00 55 1015.9
20260505233514 73 119 0.0 1.0 0.00 0.00 0.00 54 1016.0
20260505233011 74 117 0.0 1.0 0.00 0.00 0.00 52 1015.9
20260505232509 75 117 0.0 1.0 0.00 0.00 0.00 51 1016.0
20260505232006 77 25 1.0 2.0 0.00 0.00 0.00 49 1015.6
20260505231503 78 111 0.0 1.0 0.00 0.00 0.00 48 1015.7
20260505231002 79 58 1.0 2.0 0.00 0.00 0.00 46 1015.9
20260505230459 79 141 1.0 1.0 0.00 0.00 0.00 46 1015.5
20260505225955 81 67 1.0 2.0 0.00 0.00 0.00 45 1015.6
20260505225452 80 187 0.0 1.0 0.00 0.00 0.00 45 1015.7
20260505224948 80 151 1.0 2.0 0.00 0.00 0.00 46 1016.0
20260505224445 77 46 2.0 2.0 0.00 0.00 0.00 46 1015.6
20260505223942 77 69 1.0 2.0 0.00 0.00 0.00 45 1015.6
20260505223439 77 25 3.0 3.0 0.00 0.00 0.00 44 1015.6
20260505222935 79 14 2.0 3.0 0.00 0.00 0.00 43 1016.0
20260505222432 80 38 1.0 4.0 0.00 0.00 0.00 42 1016.1
20260505221928 81 325 1.0 6.0 0.00 0.00 0.00 42 1016.1
20260505221425 80 38 2.0 6.0 0.00 0.00 0.00 41 1016.0
20260505220922 82 132 1.0 4.0 0.00 0.00 0.00 41 1016.0
20260505220419 82 324 1.0 3.0 0.00 0.00 0.00 40 1015.7
20260505215917 81 36 1.0 2.0 0.00 0.00 0.00 41 1015.5
20260505215415 81 8 2.0 3.0 0.00 0.00 0.00 41 1015.5
20260505214913 80 55 1.0 2.0 0.00 0.00 0.00 41 1015.9
20260505214410 81 28 3.0 3.0 0.00 0.00 0.00 41 1015.7
20260505213907 81 54 5.0 7.0 0.00 0.00 0.00 40 1015.7
20260505213405 81 66 1.0 4.0 0.00 0.00 0.00 40 1015.7
20260505212901 82 19 1.0 2.0 0.00 0.00 0.00 39 1016.0
20260505212358 82 96 4.0 6.0 0.00 0.00 0.00 39 1016.0
20260505211854 81 130 1.0 6.0 0.00 0.00 0.00 39 1015.9
20260505211352 83 332 2.0 2.0 0.00 0.00 0.00 39 1015.9
20260505210848 82 343 2.0 4.0 0.00 0.00 0.00 40 1015.6
20260505210345 82 43 1.0 4.0 0.00 0.00 0.00 39 1016.0
20260505205842 82 60 1.0 2.0 0.00 0.00 0.00 39 1015.9
20260505205340 80 64 1.0 3.0 0.00 0.00 0.00 40 1015.7
20260505204837 80 51 2.0 7.0 0.00 0.00 0.00 39 1016.2
20260505204335 82 161 1.0 6.0 0.00 0.00 0.00 38 1016.2
20260505203832 82 113 3.0 4.0 0.00 0.00 0.00 38 1016.1
20260505203328 81 155 3.0 4.0 0.00 0.00 0.00 39 1016.3
20260505202824 80 331 2.0 3.0 0.00 0.00 0.00 39 1016.3
20260505202320 80 49 2.0 10.0 0.00 0.00 0.00 39 1016.3
20260505201817 81 52 5.0 8.0 0.00 0.00 0.00 39 1016.3
20260505201315 81 39 1.0 4.0 0.00 0.00 0.00 39 1016.3
20260505200813 82 8 3.0 4.0 0.00 0.00 0.00 40 1016.4
20260505200309 81 33 1.0 3.0 0.00 0.00 0.00 40 1016.5
20260505195805 82 69 4.0 7.0 0.00 0.00 0.00 40 1016.5
20260505195305 81 64 0.0 3.0 0.00 0.00 0.00 40 1016.5
20260505194759 81 12 2.0 10.0 0.00 0.00 0.00 40 1016.8
20260505194256 80 113 1.0 9.0 0.00 0.00 0.00 40 1016.8
20260505193751 80 16 1.0 3.0 0.00 0.00 0.00 40 1017.1
20260505193249 81 94 3.0 8.0 0.00 0.00 0.00 41 1017.0
20260505192747 80 50 2.0 7.0 0.00 0.00 0.00 41 1017.1
20260505192245 80 356 2.0 9.0 0.00 0.00 0.00 40 1017.2
20260505191743 80 307 2.0 11.0 0.00 0.00 0.00 40 1017.0
20260505191241 80 84 1.0 3.0 0.00 0.00 0.00 41 1017.0
20260505190737 80 62 2.0 8.0 0.00 0.00 0.00 41 1017.4
20260505190232 80 41 4.0 6.0 0.00 0.00 0.00 41 1017.6
20260505185728 81 73 2.0 8.0 0.00 0.00 0.00 40 1017.6
20260505185225 81 119 1.0 2.0 0.00 0.00 0.00 42 1017.5
20260505184721 79 230 2.0 6.0 0.00 0.00 0.00 40 1017.7
20260505184219 80 21 2.0 3.0 0.00 0.00 0.00 41 1017.7
20260505183715 80 351 1.0 2.0 0.00 0.00 0.00 41 1018.0
20260505183213 80 296 1.0 3.0 0.00 0.00 0.00 40 1017.9
20260505182709 81 66 2.0 6.0 0.00 0.00 0.00 39 1017.8
20260505182206 80 329 2.0 4.0 0.00 0.00 0.00 40 1017.9
20260505181702 80 79 2.0 9.0 0.00 0.00 0.00 40 1017.9
20260505181200 80 273 1.0 3.0 0.00 0.00 0.00 41 1018.0
20260505180656 79 16 2.0 4.0 0.00 0.00 0.00 41 1018.0
20260505180153 80 333 0.0 4.0 0.00 0.00 0.00 41 1018.0
20260505175649 79 337 1.0 4.0 0.00 0.00 0.00 40 1018.0
20260505175146 81 352 0.0 2.0 0.00 0.00 0.00 42 1018.2
20260505174642 79 82 3.0 3.0 0.00 0.00 0.00 41 1018.1
20260505174138 79 36 3.0 6.0 0.00 0.00 0.00 41 1018.4
20260505173635 79 225 3.0 3.0 0.00 0.00 0.00 40 1018.3
20260505173132 79 60 2.0 4.0 0.00 0.00 0.00 41 1018.6
20260505172630 79 34 1.0 7.0 0.00 0.00 0.00 41 1018.5
20260505172126 79 62 6.0 10.0 0.00 0.00 0.00 42 1018.5
20260505171621 78 35 3.0 4.0 0.00 0.00 0.00 42 1018.5
20260505171118 78 54 4.0 4.0 0.00 0.00 0.00 43 1018.5
20260505170615 78 83 2.0 11.0 0.00 0.00 0.00 44 1018.7
20260505170111 78 300 2.0 10.0 0.00 0.00 0.00 47 1019.0
20260505165606 76 254 2.0 4.0 0.00 0.00 0.00 49 1018.7
20260505165102 75 338 2.0 3.0 0.00 0.00 0.00 49 1018.7
20260505164558 76 325 5.0 9.0 0.00 0.00 0.00 48 1019.0
20260505164056 76 302 4.0 6.0 0.00 0.00 0.00 48 1018.9
20260505163555 76 97 2.0 4.0 0.00 0.00 0.00 48 1018.9
20260505163051 76 42 3.0 3.0 0.00 0.00 0.00 48 1018.8
20260505162544 77 40 3.0 9.0 0.00 0.00 0.00 48 1018.9
20260505162041 77 60 2.0 3.0 0.00 0.00 0.00 48 1018.8
20260505161538 78 231 3.0 6.0 0.00 0.00 0.00 49 1018.8
20260505161035 77 48 1.0 3.0 0.00 0.00 0.00 49 1019.0
20260505160533 76 132 1.0 3.0 0.00 0.00 0.00 49 1018.9
20260505153009 73 131 1.0 2.0 0.00 0.00 0.00 61 1019.4
20260505152507 73 64 2.0 6.0 0.00 0.00 0.00 62 1019.5
20260505152002 73 354 2.0 2.0 0.00 0.00 0.00 62 1019.5
20260505151457 72 292 2.0 3.0 0.00 0.00 0.00 63 1019.6
20260505150955 73 346 2.0 3.0 0.00 0.00 0.00 65 1019.4
20260505150452 72 80 1.0 2.0 0.00 0.00 0.00 65 1019.3
20260505140416 64 318 2.0 3.0 0.00 0.00 0.00 82 1019.3
20260505124823 59 92 0.0 0.0 0.00 0.00 0.00 95 1018.9
20260505124315 57 93 0.0 0.0 0.00 0.00 0.00 96 1018.9
20260505123811 55 93 0.0 0.0 0.00 0.00 0.00 96 1018.8
20260505123308 53 93 0.0 0.0 0.00 0.00 0.00 96 1018.8
20260505122803 51 93 0.0 1.0 0.00 0.00 0.00 95 1018.8
20260505122301 50 92 0.0 0.0 0.00 0.00 0.00 95 1019.0
20260505121757 49 92 0.0 0.0 0.00 0.00 0.00 95 1018.9
20260505121254 48 93 0.0 0.0 0.00 0.00 0.00 95 1018.9
20260505120750 48 93 0.0 0.0 0.00 0.00 0.00 95 1018.8
20260505120247 47 93 0.0 0.0 0.00 0.00 0.00 95 1018.7
20260505115746 47 93 0.0 0.0 0.00 0.00 0.00 95 1018.8
20260505115243 46 93 0.0 0.0 0.00 0.00 0.00 95 1018.9
20260505114741 46 93 0.0 0.0 0.00 0.00 0.00 95 1018.7
20260505114236 45 93 0.0 0.0 0.00 0.00 0.00 95 1018.4
20260505113733 45 93 0.0 0.0 0.00 0.00 0.00 95 1018.6
20260505113230 45 93 0.0 0.0 0.00 0.00 0.00 95 1018.7
20260505112726 44 93 0.0 0.0 0.00 0.00 0.00 94 1018.6
20260505112223 44 93 0.0 0.0 0.00 0.00 0.00 94 1018.3
20260505111718 44 92 0.0 0.0 0.00 0.00 0.00 94 1018.2
20260505111214 44 93 0.0 0.0 0.00 0.00 0.00 94 1018.1
20260505110710 44 93 0.0 0.0 0.00 0.00 0.00 94 1017.9
20260505110208 44 93 0.0 0.0 0.00 0.00 0.00 94 1018.1
20260505102143 44 91 0.0 0.0 0.00 0.00 0.00 94 1018.2
20260505101642 44 91 0.0 0.0 0.00 0.00 0.00 93 1017.9
20260505101138 44 91 0.0 0.0 0.00 0.00 0.00 93 1018.0
20260505100634 44 91 0.0 0.0 0.00 0.00 0.00 93 1018.0
20260505100131 44 91 0.0 0.0 0.00 0.00 0.00 93 1018.0
20260505095627 44 91 0.0 0.0 0.00 0.00 0.00 93 1017.9
20260505095124 45 90 0.0 0.0 0.00 0.00 0.00 93 1018.2
20260505094620 45 92 0.0 1.0 0.00 0.00 0.00 93 1018.1
20260505094116 45 92 0.0 0.0 0.00 0.00 0.00 93 1018.0
20260505093612 45 91 0.0 1.0 0.00 0.00 0.00 93 1018.0
20260505093110 45 302 0.0 0.0 0.00 0.00 0.00 93 1017.9
20260505092607 45 0 1.0 1.0 0.00 0.00 0.00 93 1017.9
20260505092106 45 1 0.0 0.0 0.00 0.00 0.00 93 1017.7
20260505091602 45 1 0.0 0.0 0.00 0.00 0.00 93 1017.8
20260505091101 45 1 0.0 0.0 0.00 0.00 0.00 93 1017.9
20260505090558 45 1 0.0 0.0 0.00 0.00 0.00 92 1017.9
20260505090056 45 1 0.0 0.0 0.00 0.00 0.00 92 1017.9
20260505085553 46 1 0.0 0.0 0.00 0.00 0.00 92 1018.1
20260505085052 46 1 0.0 0.0 0.00 0.00 0.00 92 1018.1
20260505084549 46 1 0.0 0.0 0.00 0.00 0.00 92 1017.8
20260505084047 46 1 0.0 0.0 0.00 0.00 0.00 92 1017.8
20260505083543 46 0 0.0 0.0 0.00 0.00 0.00 92 1017.7
20260505083040 46 0 0.0 0.0 0.00 0.00 0.00 92 1017.8
20260505082536 46 0 0.0 1.0 0.00 0.00 0.00 92 1018.0
20260505082033 46 0 0.0 0.0 0.00 0.00 0.00 92 1018.2
20260505081529 46 0 0.0 0.0 0.00 0.00 0.00 92 1017.9
20260505081027 47 0 0.0 0.0 0.00 0.00 0.00 92 1018.0
20260505080522 47 0 0.0 0.0 0.00 0.00 0.00 91 1017.9
20260505080020 47 0 0.0 0.0 0.00 0.00 0.00 91 1017.7
20260505075515 47 0 0.0 0.0 0.00 0.00 0.00 91 1017.8
20260505075013 47 101 0.0 2.0 0.00 0.00 0.00 91 1017.9
20260505074510 47 133 0.0 0.0 0.00 0.00 0.00 91 1017.6
20260505074007 47 133 0.0 0.0 0.00 0.00 0.00 91 1017.8
20260505073504 47 133 0.0 0.0 0.00 0.00 0.00 91 1017.5
20260505073002 47 133 0.0 0.0 0.00 0.00 0.00 91 1017.3
20260505072457 47 133 0.0 0.0 0.00 0.00 0.00 91 1017.7
20260505071954 48 133 0.0 0.0 0.00 0.00 0.00 90 1017.4
20260505071450 48 133 0.0 0.0 0.00 0.00 0.00 90 1017.5
20260505070948 48 133 0.0 0.0 0.00 0.00 0.00 90 1017.5
20260505070444 48 133 0.0 0.0 0.00 0.00 0.00 90 1017.6
20260505065940 48 133 0.0 0.0 0.00 0.00 0.00 90 1017.6
20260505065437 48 133 0.0 0.0 0.00 0.00 0.00 90 1017.5
20260505064934 49 133 0.0 0.0 0.00 0.00 0.00 90 1017.6
20260505064431 49 133 0.0 0.0 0.00 0.00 0.00 90 1017.7
20260505063929 49 133 0.0 0.0 0.00 0.00 0.00 90 1017.6
20260505063425 49 133 0.0 0.0 0.00 0.00 0.00 90 1017.7
20260505062922 49 133 0.0 0.0 0.00 0.00 0.00 89 1017.7
20260505062419 49 133 0.0 0.0 0.00 0.00 0.00 89 1017.9
20260505061915 50 132 0.0 0.0 0.00 0.00 0.00 89 1017.9
20260505061414 50 132 0.0 0.0 0.00 0.00 0.00 89 1017.8
20260505060911 50 132 0.0 0.0 0.00 0.00 0.00 89 1017.9
20260505060408 51 132 0.0 0.0 0.00 0.00 0.00 89 1017.9
20260505055904 51 132 0.0 0.0 0.00 0.00 0.00 89 1017.8
20260505055400 51 132 0.0 0.0 0.00 0.00 0.00 89 1017.8
20260505054857 51 132 0.0 0.0 0.00 0.00 0.00 88 1017.8
20260505054355 52 132 0.0 0.0 0.00 0.00 0.00 88 1017.6
20260505053853 52 132 0.0 0.0 0.00 0.00 0.00 88 1017.6
20260505053349 52 132 0.0 0.0 0.00 0.00 0.00 88 1017.9
20260505052846 52 131 0.0 0.0 0.00 0.00 0.00 88 1018.0
20260505052343 52 131 0.0 0.0 0.00 0.00 0.00 88 1017.6
20260505051840 52 131 0.0 0.0 0.00 0.00 0.00 88 1017.8
20260505051338 53 131 0.0 0.0 0.00 0.00 0.00 88 1018.0
20260505050835 53 131 0.0 0.0 0.00 0.00 0.00 88 1017.9
20260505050334 53 131 0.0 1.0 0.00 0.00 0.00 88 1017.7
20260505041301 53 135 0.0 0.0 0.00 0.00 0.00 86 1017.6
20260505040758 53 135 0.0 0.0 0.00 0.00 0.00 86 1017.9
20260505040255 53 135 0.0 0.0 0.00 0.00 0.00 86 1018.1
20260505035752 53 135 0.0 0.0 0.00 0.00 0.00 86 1018.0
20260505035248 53 135 0.0 0.0 0.00 0.00 0.00 85 1017.9
20260505034745 54 136 0.0 1.0 0.00 0.00 0.00 85 1018.1
20260505034242 54 136 0.0 1.0 0.00 0.00 0.00 85 1018.1
20260505033738 54 136 0.0 1.0 0.00 0.00 0.00 85 1018.0
20260505033236 54 137 0.0 1.0 0.00 0.00 0.00 84 1018.1
20260505032734 54 137 0.0 1.0 0.00 0.00 0.00 84 1018.1
20260505032229 54 142 1.0 1.0 0.00 0.00 0.00 84 1018.0
20260505031727 54 144 0.0 0.0 0.00 0.00 0.00 83 1018.2
20260505031223 55 144 0.0 0.0 0.00 0.00 0.00 83 1018.1
20260505030720 55 144 0.0 0.0 0.00 0.00 0.00 83 1018.2
20260505030216 55 144 0.0 0.0 0.00 0.00 0.00 83 1017.9
20260505025712 55 144 0.0 0.0 0.00 0.00 0.00 82 1018.0
20260505025211 55 144 0.0 0.0 0.00 0.00 0.00 82 1017.9
20260505024709 56 144 0.0 0.0 0.00 0.00 0.00 82 1018.0
20260505024205 56 144 0.0 0.0 0.00 0.00 0.00 81 1018.1
20260505023703 56 144 0.0 0.0 0.00 0.00 0.00 81 1018.0
20260505023200 56 144 0.0 0.0 0.00 0.00 0.00 81 1018.1
20260505022658 56 145 0.0 0.0 0.00 0.00 0.00 80 1018.0
20260505022154 57 145 0.0 0.0 0.00 0.00 0.00 80 1018.0
20260505021651 57 144 0.0 1.0 0.00 0.00 0.00 80 1018.1
20260505021148 57 144 0.0 0.0 0.00 0.00 0.00 79 1018.0
20260505020643 57 145 0.0 0.0 0.00 0.00 0.00 79 1017.7
20260505020139 58 146 0.0 1.0 0.00 0.00 0.00 78 1017.9
20260505015637 58 157 0.0 1.0 0.00 0.00 0.00 78 1017.6
20260505015133 58 159 0.0 1.0 0.00 0.00 0.00 77 1017.6
20260505014630 58 162 0.0 1.0 0.00 0.00 0.00 77 1017.8
20260505014127 59 111 0.0 0.0 0.00 0.00 0.00 76 1017.6
20260505013625 59 110 0.0 0.0 0.00 0.00 0.00 75 1017.7
20260505013122 60 111 0.0 0.0 0.00 0.00 0.00 75 1017.3
20260505012620 60 110 0.0 0.0 0.00 0.00 0.00 74 1017.5
20260505012117 60 111 0.0 0.0 0.00 0.00 0.00 74 1017.3
20260505011612 61 113 0.0 0.0 0.00 0.00 0.00 73 1017.3
20260505011110 61 113 0.0 1.0 0.00 0.00 0.00 73 1017.4
20260505010605 61 131 0.0 0.0 0.00 0.00 0.00 72 1017.2
20260505005558 62 131 0.0 0.0 0.00 0.00 0.00 71 1017.1
20260505005056 62 131 0.0 0.0 0.00 0.00 0.00 70 1017.3
20260505004553 63 131 0.0 0.0 0.00 0.00 0.00 69 1017.3
20260505004049 63 131 0.0 0.0 0.00 0.00 0.00 68 1017.0
20260505003547 64 131 0.0 0.0 0.00 0.00 0.00 67 1017.2
20260505003044 64 119 0.0 0.0 0.00 0.00 0.00 66 1017.0
20260505002543 65 119 0.0 0.0 0.00 0.00 0.00 65 1017.0
20260505002038 65 119 0.0 0.0 0.00 0.00 0.00 63 1017.0